,,PressureMeas_1m,,PRMeasQMR101_1,,RHStat155_1m_1,,SRMeasQMS101R_1m,,TAStat155_1m_1,,GenWind_1,,GenWind_1,
2018-06-13, 00:00:07,VALID,918.88,VALID,0.0,VALID,96.152,VALID,0.015,VALID,21.448,VALID,4.0,VALID,0.0,
2018-06-13, 00:01:07,VALID,918.867,VALID,0.0,VALID,96.529,VALID,0.008,VALID,21.429,VALID,4.0,VALID,0.0,
2018-06-13, 00:02:07,VALID,918.858,VALID,0.0,VALID,96.723,VALID,0.022,VALID,21.408,VALID,4.0,VALID,0.0,
2018-06-13, 00:03:07,VALID,918.857,VALID,0.0,VALID,96.908,VALID,0.02,VALID,21.413,VALID,2.0,VALID,0.0,
2018-06-13, 00:04:07,VALID,918.859,VALID,0.0,VALID,96.857,VALID,-0.006,VALID,21.411,VALID,1.0,VALID,0.0,
2018-06-13, 00:05:07,VALID,918.861,VALID,0.0,VALID,96.826,VALID,-0.017,VALID,21.401,VALID,1.0,VALID,0.0,
2018-06-13, 00:06:07,VALID,918.862,VALID,0.0,VALID,96.864,VALID,-0.027,VALID,21.368,VALID,1.0,VALID,0.0,
2018-06-13, 00:07:07,VALID,918.852,VALID,0.0,VALID,96.997,VALID,0.001,VALID,21.337,VALID,1.0,VALID,0.0,
2018-06-13, 00:08:07,VALID,918.839,VALID,0.0,VALID,97.168,VALID,-0.021,VALID,21.328,VALID,1.0,VALID,0.0,
2018-06-13, 00:09:07,VALID,918.806,VALID,0.0,VALID,97.195,VALID,-0.029,VALID,21.333,VALID,1.0,VALID,0.0,
2018-06-13, 00:10:07,VALID,918.787,VALID,0.0,VALID,97.165,VALID,-0.026,VALID,21.338,VALID,1.0,VALID,0.0,
2018-06-13, 00:11:07,VALID,918.75,VALID,0.0,VALID,96.965,VALID,-0.02,VALID,21.347,VALID,1.0,VALID,0.0,
2018-06-13, 00:12:07,VALID,918.719,VALID,0.0,VALID,96.938,VALID,-0.016,VALID,21.394,VALID,1.0,VALID,0.0,
2018-06-13, 00:13:07,VALID,918.71,VALID,0.0,VALID,96.663,VALID,-0.019,VALID,21.409,VALID,1.0,VALID,0.0,
2018-06-13, 00:14:07,VALID,918.704,VALID,0.0,VALID,96.55,VALID,-0.028,VALID,21.421,VALID,1.0,VALID,0.0,
2018-06-13, 00:15:07,VALID,918.699,VALID,0.0,VALID,96.649,VALID,-0.019,VALID,21.467,VALID,300.0,VALID,0.0,
2018-06-13, 00:16:07,VALID,918.704,VALID,0.0,VALID,96.613,VALID,-0.019,VALID,21.494,VALID,288.0,VALID,0.0,
2018-06-13, 00:17:07,VALID,918.691,VALID,0.0,VALID,96.603,VALID,-0.018,VALID,21.52,VALID,286.0,VALID,0.0,
2018-06-13, 00:18:07,VALID,918.693,VALID,0.0,VALID,96.58,VALID,-0.007,VALID,21.556,VALID,284.0,VALID,0.0,
2018-06-13, 00:19:07,VALID,918.696,VALID,0.0,VALID,96.389,VALID,-0.018,VALID,21.575,VALID,279.0,VALID,0.0,
2018-06-13, 00:20:07,VALID,918.692,VALID,0.0,VALID,96.355,VALID,-0.006,VALID,21.616,VALID,278.0,VALID,0.0,
2018-06-13, 00:21:07,VALID,918.693,VALID,0.0,VALID,96.172,VALID,-0.017,VALID,21.64,VALID,278.0,VALID,0.0,
2018-06-13, 00:22:07,VALID,918.685,VALID,0.0,VALID,95.93,VALID,-0.016,VALID,21.631,VALID,277.0,VALID,0.0,
2018-06-13, 00:23:07,VALID,918.694,VALID,0.0,VALID,95.862,VALID,-0.031,VALID,21.62,VALID,277.0,VALID,0.0,
2018-06-13, 00:24:07,VALID,918.7,VALID,0.0,VALID,95.89,VALID,-0.023,VALID,21.601,VALID,278.0,VALID,0.0,
2018-06-13, 00:25:07,VALID,918.708,VALID,0.0,VALID,96.06,VALID,-0.014,VALID,21.606,VALID,281.0,VALID,0.0,
2018-06-13, 00:26:07,VALID,918.715,VALID,0.0,VALID,95.984,VALID,-0.023,VALID,21.601,VALID,306.0,VALID,0.0,
2018-06-13, 00:27:07,VALID,918.715,VALID,0.0,VALID,96.048,VALID,-0.016,VALID,21.601,VALID,347.0,VALID,0.0,
2018-06-13, 00:28:07,VALID,918.72,VALID,0.0,VALID,96.042,VALID,-0.009,VALID,21.585,VALID,348.0,VALID,0.0,
2018-06-13, 00:29:07,VALID,918.722,VALID,0.0,VALID,96.191,VALID,-0.024,VALID,21.581,VALID,348.0,VALID,0.0,
2018-06-13, 00:30:07,VALID,918.72,VALID,0.0,VALID,96.103,VALID,-0.017,VALID,21.537,VALID,4.0,VALID,0.0,
2018-06-13, 00:31:07,VALID,918.726,VALID,0.0,VALID,96.064,VALID,-0.017,VALID,21.467,VALID,14.0,VALID,0.0,
2018-06-13, 00:32:07,VALID,918.717,VALID,0.0,VALID,96.171,VALID,-0.009,VALID,21.414,VALID,14.0,VALID,0.0,
2018-06-13, 00:33:07,VALID,918.701,VALID,0.0,VALID,96.466,VALID,-0.013,VALID,21.402,VALID,14.0,VALID,0.0,
2018-06-13, 00:34:07,VALID,918.681,VALID,0.0,VALID,96.518,VALID,-0.012,VALID,21.415,VALID,13.0,VALID,0.0,
2018-06-13, 00:35:07,VALID,918.658,VALID,0.0,VALID,96.402,VALID,-0.023,VALID,21.422,VALID,12.0,VALID,0.0,
2018-06-13, 00:36:07,VALID,918.646,VALID,0.0,VALID,96.297,VALID,-0.017,VALID,21.423,VALID,12.0,VALID,0.0,
2018-06-13, 00:37:07,VALID,918.625,VALID,0.0,VALID,96.271,VALID,-0.04,VALID,21.444,VALID,12.0,VALID,0.0,
2018-06-13, 00:38:07,VALID,918.62,VALID,0.0,VALID,96.225,VALID,-0.038,VALID,21.49,VALID,12.0,VALID,0.0,
2018-06-13, 00:39:07,VALID,918.629,VALID,0.0,VALID,96.074,VALID,-0.037,VALID,21.533,VALID,12.0,VALID,0.0,
2018-06-13, 00:40:07,VALID,918.623,VALID,0.0,VALID,95.964,VALID,-0.022,VALID,21.579,VALID,12.0,VALID,0.0,
2018-06-13, 00:41:07,VALID,918.611,VALID,0.0,VALID,95.905,VALID,-0.04,VALID,21.612,VALID,12.0,VALID,0.0,
2018-06-13, 00:42:07,VALID,918.598,VALID,0.0,VALID,95.657,VALID,-0.018,VALID,21.622,VALID,12.0,VALID,0.0,
2018-06-13, 00:43:07,VALID,918.564,VALID,0.0,VALID,95.485,VALID,-0.014,VALID,21.635,VALID,12.0,VALID,0.0,
2018-06-13, 00:44:07,VALID,918.531,VALID,0.0,VALID,95.329,VALID,-0.03,VALID,21.647,VALID,12.0,VALID,0.0,
2018-06-13, 00:45:07,VALID,918.513,VALID,0.0,VALID,95.272,VALID,-0.04,VALID,21.663,VALID,12.0,VALID,0.0,
2018-06-13, 00:46:07,VALID,918.495,VALID,0.0,VALID,95.304,VALID,-0.027,VALID,21.688,VALID,12.0,VALID,0.0,
2018-06-13, 00:47:07,VALID,918.482,VALID,0.0,VALID,95.157,VALID,-0.018,VALID,21.7,VALID,12.0,VALID,0.0,
2018-06-13, 00:48:07,VALID,918.473,VALID,0.0,VALID,94.69,VALID,-0.04,VALID,21.664,VALID,12.0,VALID,0.0,
2018-06-13, 00:49:07,VALID,918.471,VALID,0.0,VALID,94.317,VALID,-0.015,VALID,21.616,VALID,12.0,VALID,0.0,
2018-06-13, 00:50:07,VALID,918.459,VALID,0.0,VALID,94.659,VALID,-0.012,VALID,21.531,VALID,12.0,VALID,0.0,
2018-06-13, 00:51:07,VALID,918.455,VALID,0.0,VALID,95.337,VALID,-0.012,VALID,21.472,VALID,10.0,VALID,0.0,
2018-06-13, 00:52:07,VALID,918.44,VALID,0.0,VALID,95.767,VALID,-0.008,VALID,21.436,VALID,7.0,VALID,0.0,
2018-06-13, 00:53:07,VALID,918.413,VALID,0.0,VALID,95.945,VALID,-0.011,VALID,21.4,VALID,7.0,VALID,0.0,
2018-06-13, 00:54:07,VALID,918.391,VALID,0.0,VALID,96.111,VALID,-0.02,VALID,21.4,VALID,7.0,VALID,0.0,
2018-06-13, 00:55:07,VALID,918.367,VALID,0.0,VALID,96.062,VALID,-0.004,VALID,21.412,VALID,7.0,VALID,0.0,
2018-06-13, 00:56:07,VALID,918.35,VALID,0.0,VALID,96.06,VALID,-0.01,VALID,21.439,VALID,7.0,VALID,0.0,
2018-06-13, 00:57:07,VALID,918.327,VALID,0.0,VALID,95.916,VALID,-0.002,VALID,21.476,VALID,7.0,VALID,0.0,
2018-06-13, 00:58:07,VALID,918.304,VALID,0.0,VALID,95.602,VALID,-0.013,VALID,21.476,VALID,6.0,VALID,0.0,
2018-06-13, 00:59:07,VALID,918.283,VALID,0.0,VALID,95.422,VALID,-0.011,VALID,21.456,VALID,6.0,VALID,0.0,
2018-06-13, 01:00:07,VALID,918.252,VALID,0.0,VALID,95.489,VALID,-0.018,VALID,21.445,VALID,4.0,VALID,0.0,
2018-06-13, 01:01:07,VALID,918.224,VALID,0.0,VALID,95.386,VALID,-0.014,VALID,21.417,VALID,3.0,VALID,0.0,
2018-06-13, 01:02:07,VALID,918.215,VALID,0.0,VALID,95.575,VALID,-0.014,VALID,21.376,VALID,353.0,VALID,0.0,
2018-06-13, 01:03:07,VALID,918.199,VALID,0.0,VALID,95.787,VALID,-0.027,VALID,21.368,VALID,344.0,VALID,0.0,
2018-06-13, 01:04:07,VALID,918.189,VALID,0.0,VALID,95.759,VALID,-0.013,VALID,21.348,VALID,344.0,VALID,0.0,
2018-06-13, 01:05:07,VALID,918.166,VALID,0.0,VALID,95.815,VALID,-0.009,VALID,21.31,VALID,344.0,VALID,0.0,
2018-06-13, 01:06:07,VALID,918.157,VALID,0.0,VALID,96.071,VALID,-0.004,VALID,21.262,VALID,344.0,VALID,0.0,
2018-06-13, 01:07:07,VALID,918.142,VALID,0.0,VALID,96.367,VALID,-0.022,VALID,21.249,VALID,344.0,VALID,0.0,
2018-06-13, 01:08:07,VALID,918.112,VALID,0.0,VALID,96.398,VALID,-0.002,VALID,21.228,VALID,344.0,VALID,0.0,
2018-06-13, 01:09:07,VALID,918.093,VALID,0.0,VALID,96.589,VALID,-0.001,VALID,21.216,VALID,357.0,VALID,0.0,
2018-06-13, 01:10:07,VALID,918.066,VALID,0.0,VALID,96.593,VALID,-0.029,VALID,21.19,VALID,355.0,VALID,0.0,
2018-06-13, 01:11:07,VALID,918.046,VALID,0.0,VALID,96.772,VALID,-0.007,VALID,21.19,VALID,346.0,VALID,0.0,
2018-06-13, 01:12:07,VALID,918.012,VALID,0.0,VALID,96.819,VALID,0.005,VALID,21.184,VALID,346.0,VALID,0.0,
2018-06-13, 01:13:07,VALID,918.005,VALID,0.0,VALID,96.847,VALID,-0.021,VALID,21.173,VALID,347.0,VALID,0.0,
2018-06-13, 01:14:07,VALID,917.982,VALID,0.0,VALID,96.897,VALID,-0.009,VALID,21.14,VALID,356.0,VALID,0.0,
2018-06-13, 01:15:07,VALID,917.968,VALID,0.0,VALID,97.021,VALID,-0.005,VALID,21.125,VALID,349.0,VALID,0.0,
2018-06-13, 01:16:07,VALID,917.953,VALID,0.0,VALID,97.146,VALID,-0.018,VALID,21.128,VALID,345.0,VALID,0.0,
2018-06-13, 01:17:07,VALID,917.944,VALID,0.0,VALID,97.245,VALID,-0.007,VALID,21.144,VALID,330.0,VALID,0.0,
2018-06-13, 01:18:07,VALID,917.939,VALID,0.0,VALID,97.259,VALID,-0.012,VALID,21.17,VALID,309.0,VALID,0.0,
2018-06-13, 01:19:07,VALID,917.932,VALID,0.0,VALID,97.193,VALID,-0.002,VALID,21.18,VALID,312.0,VALID,0.0,
2018-06-13, 01:20:07,VALID,917.916,VALID,0.0,VALID,97.22,VALID,0.011,VALID,21.212,VALID,274.0,VALID,0.0,
2018-06-13, 01:21:07,VALID,917.914,VALID,0.0,VALID,97.148,VALID,0.01,VALID,21.252,VALID,247.0,VALID,0.0,
2018-06-13, 01:22:07,VALID,917.924,VALID,0.0,VALID,97.024,VALID,0.009,VALID,21.283,VALID,247.0,VALID,0.0,
2018-06-13, 01:23:07,VALID,917.924,VALID,0.0,VALID,96.93,VALID,-0.006,VALID,21.312,VALID,247.0,VALID,0.0,
2018-06-13, 01:24:07,VALID,917.918,VALID,0.0,VALID,96.772,VALID,-0.003,VALID,21.318,VALID,247.0,VALID,0.0,
2018-06-13, 01:25:07,VALID,917.935,VALID,0.0,VALID,96.773,VALID,-0.004,VALID,21.337,VALID,262.0,VALID,0.0,
2018-06-13, 01:26:07,VALID,917.937,VALID,0.0,VALID,96.668,VALID,-0.016,VALID,21.338,VALID,267.0,VALID,0.0,
2018-06-13, 01:27:07,VALID,917.952,VALID,0.0,VALID,96.528,VALID,-0.018,VALID,21.328,VALID,320.0,VALID,0.0,
2018-06-13, 01:28:07,VALID,917.992,VALID,0.0,VALID,96.598,VALID,-0.011,VALID,21.336,VALID,327.0,VALID,0.0,
2018-06-13, 01:29:07,VALID,918.017,VALID,0.0,VALID,96.546,VALID,0.002,VALID,21.339,VALID,24.0,VALID,0.0,
2018-06-13, 01:30:06,VALID,918.042,VALID,0.0,VALID,96.452,VALID,0.01,VALID,21.329,VALID,74.0,VALID,0.0,
2018-06-13, 01:31:06,VALID,918.052,VALID,0.0,VALID,96.416,VALID,0.006,VALID,21.311,VALID,98.0,VALID,0.0,
2018-06-13, 01:32:06,VALID,918.065,VALID,0.0,VALID,96.393,VALID,0.009,VALID,21.277,VALID,106.0,VALID,0.0,
2018-06-13, 01:33:06,VALID,918.063,VALID,0.0,VALID,96.54,VALID,0.0,VALID,21.246,VALID,106.0,VALID,0.0,
2018-06-13, 01:34:06,VALID,918.064,VALID,0.0,VALID,96.719,VALID,-0.013,VALID,21.23,VALID,108.0,VALID,0.0,
2018-06-13, 01:35:06,VALID,918.031,VALID,0.0,VALID,96.861,VALID,-0.03,VALID,21.228,VALID,109.0,VALID,0.0,
2018-06-13, 01:36:06,VALID,918.011,VALID,0.0,VALID,96.934,VALID,-0.036,VALID,21.236,VALID,109.0,VALID,0.0,
2018-06-13, 01:37:06,VALID,917.994,VALID,0.0,VALID,97.006,VALID,-0.024,VALID,21.239,VALID,111.0,VALID,0.0,
2018-06-13, 01:38:06,VALID,917.987,VALID,0.0,VALID,97.047,VALID,-0.024,VALID,21.236,VALID,112.0,VALID,0.0,
2018-06-13, 01:39:06,VALID,917.984,VALID,0.0,VALID,97.114,VALID,-0.017,VALID,21.246,VALID,112.0,VALID,0.0,
2018-06-13, 01:40:06,VALID,917.98,VALID,0.0,VALID,97.149,VALID,-0.045,VALID,21.268,VALID,112.0,VALID,0.0,
2018-06-13, 01:41:06,VALID,917.988,VALID,0.0,VALID,97.152,VALID,-0.03,VALID,21.287,VALID,112.0,VALID,0.0,
2018-06-13, 01:42:06,VALID,917.993,VALID,0.0,VALID,97.099,VALID,-0.026,VALID,21.31,VALID,112.0,VALID,0.0,
2018-06-13, 01:43:06,VALID,918.014,VALID,0.0,VALID,97.088,VALID,-0.025,VALID,21.338,VALID,112.0,VALID,0.0,
2018-06-13, 01:44:06,VALID,918.018,VALID,0.0,VALID,97.131,VALID,-0.036,VALID,21.381,VALID,112.0,VALID,0.0,
2018-06-13, 01:45:06,VALID,918.023,VALID,0.0,VALID,97.296,VALID,-0.022,VALID,21.432,VALID,112.0,VALID,0.0,
2018-06-13, 01:46:06,VALID,918.015,VALID,0.0,VALID,97.199,VALID,-0.027,VALID,21.444,VALID,112.0,VALID,0.0,
2018-06-13, 01:47:06,VALID,918.008,VALID,0.0,VALID,96.989,VALID,-0.037,VALID,21.455,VALID,112.0,VALID,0.0,
2018-06-13, 01:48:06,VALID,917.996,VALID,0.0,VALID,96.69,VALID,-0.03,VALID,21.445,VALID,112.0,VALID,0.0,
2018-06-13, 01:49:06,VALID,917.958,VALID,0.0,VALID,96.657,VALID,-0.004,VALID,21.44,VALID,110.0,VALID,0.0,
2018-06-13, 01:50:06,VALID,917.94,VALID,0.0,VALID,96.639,VALID,-0.008,VALID,21.428,VALID,108.0,VALID,0.0,
2018-06-13, 01:51:06,VALID,917.932,VALID,0.0,VALID,96.847,VALID,-0.007,VALID,21.422,VALID,68.0,VALID,0.0,
2018-06-13, 01:52:06,VALID,917.923,VALID,0.0,VALID,97.146,VALID,-0.01,VALID,21.433,VALID,2.0,VALID,0.0,
2018-06-13, 01:53:06,VALID,917.924,VALID,0.0,VALID,97.338,VALID,-0.004,VALID,21.429,VALID,2.0,VALID,0.0,
2018-06-13, 01:54:06,VALID,917.94,VALID,0.0,VALID,97.459,VALID,-0.005,VALID,21.428,VALID,2.0,VALID,0.0,
2018-06-13, 01:55:06,VALID,917.958,VALID,0.0,VALID,97.571,VALID,-0.02,VALID,21.427,VALID,2.0,VALID,0.0,
2018-06-13, 01:56:06,VALID,917.971,VALID,0.0,VALID,97.549,VALID,-0.013,VALID,21.413,VALID,2.0,VALID,0.0,
2018-06-13, 01:57:06,VALID,917.976,VALID,0.0,VALID,97.43,VALID,-0.009,VALID,21.393,VALID,2.0,VALID,0.0,
2018-06-13, 01:58:06,VALID,917.976,VALID,0.0,VALID,97.419,VALID,0.012,VALID,21.377,VALID,18.0,VALID,0.0,
2018-06-13, 01:59:06,VALID,917.964,VALID,0.0,VALID,97.456,VALID,-0.019,VALID,21.362,VALID,39.0,VALID,0.0,
2018-06-13, 02:00:06,VALID,917.96,VALID,0.0,VALID,97.492,VALID,-0.03,VALID,21.325,VALID,39.0,VALID,0.0,
2018-06-13, 02:01:06,VALID,917.936,VALID,0.0,VALID,97.602,VALID,-0.023,VALID,21.301,VALID,39.0,VALID,0.0,
2018-06-13, 02:02:06,VALID,917.916,VALID,0.0,VALID,97.683,VALID,-0.027,VALID,21.284,VALID,39.0,VALID,0.0,
2018-06-13, 02:03:06,VALID,917.895,VALID,0.0,VALID,97.747,VALID,-0.013,VALID,21.26,VALID,38.0,VALID,0.0,
2018-06-13, 02:04:06,VALID,917.887,VALID,0.0,VALID,97.866,VALID,-0.006,VALID,21.264,VALID,29.0,VALID,0.0,
2018-06-13, 02:05:06,VALID,917.869,VALID,0.0,VALID,98.008,VALID,-0.01,VALID,21.304,VALID,351.0,VALID,0.0,
2018-06-13, 02:06:06,VALID,917.875,VALID,0.0,VALID,98.073,VALID,-0.006,VALID,21.349,VALID,351.0,VALID,0.0,
2018-06-13, 02:07:06,VALID,917.883,VALID,0.0,VALID,98.071,VALID,-0.033,VALID,21.361,VALID,350.0,VALID,0.0,
2018-06-13, 02:08:06,VALID,917.894,VALID,0.0,VALID,98.039,VALID,-0.021,VALID,21.371,VALID,350.0,VALID,0.0,
2018-06-13, 02:09:06,VALID,917.881,VALID,0.0,VALID,98.1,VALID,-0.015,VALID,21.4,VALID,350.0,VALID,0.0,
2018-06-13, 02:10:06,VALID,917.872,VALID,0.0,VALID,98.058,VALID,0.002,VALID,21.396,VALID,274.0,VALID,0.0,
2018-06-13, 02:11:06,VALID,917.852,VALID,0.0,VALID,97.943,VALID,-0.005,VALID,21.35,VALID,244.0,VALID,0.0,
2018-06-13, 02:12:06,VALID,917.844,VALID,0.0,VALID,97.909,VALID,-0.008,VALID,21.338,VALID,237.0,VALID,0.0,
2018-06-13, 02:13:06,VALID,917.821,VALID,0.0,VALID,97.883,VALID,-0.003,VALID,21.339,VALID,234.0,VALID,0.0,
2018-06-13, 02:14:06,VALID,917.81,VALID,0.0,VALID,97.85,VALID,-0.027,VALID,21.343,VALID,234.0,VALID,0.0,
2018-06-13, 02:15:06,VALID,917.802,VALID,0.0,VALID,97.814,VALID,-0.026,VALID,21.353,VALID,235.0,VALID,0.0,
2018-06-13, 02:16:06,VALID,917.807,VALID,0.0,VALID,97.793,VALID,-0.022,VALID,21.361,VALID,235.0,VALID,0.0,
2018-06-13, 02:17:06,VALID,917.802,VALID,0.0,VALID,97.769,VALID,-0.009,VALID,21.38,VALID,235.0,VALID,0.0,
2018-06-13, 02:18:06,VALID,917.818,VALID,0.0,VALID,97.666,VALID,-0.011,VALID,21.399,VALID,235.0,VALID,0.0,
2018-06-13, 02:19:06,VALID,917.805,VALID,0.0,VALID,97.524,VALID,-0.006,VALID,21.41,VALID,235.0,VALID,0.0,
2018-06-13, 02:20:06,VALID,917.808,VALID,0.0,VALID,97.428,VALID,-0.012,VALID,21.413,VALID,235.0,VALID,0.0,
2018-06-13, 02:21:06,VALID,917.793,VALID,0.0,VALID,97.375,VALID,-0.025,VALID,21.429,VALID,235.0,VALID,0.0,
2018-06-13, 02:22:06,VALID,917.772,VALID,0.0,VALID,97.342,VALID,-0.011,VALID,21.44,VALID,235.0,VALID,0.0,
2018-06-13, 02:23:06,VALID,917.751,VALID,0.0,VALID,97.287,VALID,-0.017,VALID,21.452,VALID,235.0,VALID,0.0,
2018-06-13, 02:24:06,VALID,917.719,VALID,0.0,VALID,97.273,VALID,-0.028,VALID,21.475,VALID,235.0,VALID,0.0,
2018-06-13, 02:25:06,VALID,917.702,VALID,0.0,VALID,97.305,VALID,-0.029,VALID,21.507,VALID,242.0,VALID,0.0,
2018-06-13, 02:26:06,VALID,917.683,VALID,0.0,VALID,97.172,VALID,-0.034,VALID,21.516,VALID,245.0,VALID,0.0,
2018-06-13, 02:27:06,VALID,917.673,VALID,0.0,VALID,97.087,VALID,-0.035,VALID,21.515,VALID,245.0,VALID,0.0,
2018-06-13, 02:28:06,VALID,917.676,VALID,0.0,VALID,97.0,VALID,-0.007,VALID,21.495,VALID,245.0,VALID,0.0,
2018-06-13, 02:29:06,VALID,917.672,VALID,0.0,VALID,96.992,VALID,-0.018,VALID,21.483,VALID,245.0,VALID,0.0,
2018-06-13, 02:30:06,VALID,917.671,VALID,0.0,VALID,97.06,VALID,-0.025,VALID,21.49,VALID,245.0,VALID,0.0,
2018-06-13, 02:31:06,VALID,917.673,VALID,0.0,VALID,96.927,VALID,-0.016,VALID,21.476,VALID,245.0,VALID,0.0,
2018-06-13, 02:32:06,VALID,917.658,VALID,0.0,VALID,96.943,VALID,-0.009,VALID,21.468,VALID,245.0,VALID,0.0,
2018-06-13, 02:33:06,VALID,917.646,VALID,0.0,VALID,96.924,VALID,-0.004,VALID,21.456,VALID,245.0,VALID,0.0,
2018-06-13, 02:34:06,VALID,917.636,VALID,0.0,VALID,97.003,VALID,-0.013,VALID,21.439,VALID,241.0,VALID,0.0,
2018-06-13, 02:35:06,VALID,917.628,VALID,0.0,VALID,97.113,VALID,-0.012,VALID,21.433,VALID,238.0,VALID,0.0,
2018-06-13, 02:36:06,VALID,917.613,VALID,0.0,VALID,97.172,VALID,-0.006,VALID,21.425,VALID,233.0,VALID,0.0,
2018-06-13, 02:37:06,VALID,917.595,VALID,0.0,VALID,97.222,VALID,-0.01,VALID,21.42,VALID,232.0,VALID,0.0,
2018-06-13, 02:38:06,VALID,917.574,VALID,0.0,VALID,97.283,VALID,-0.012,VALID,21.423,VALID,231.0,VALID,0.0,
2018-06-13, 02:39:06,VALID,917.58,VALID,0.0,VALID,97.338,VALID,0.002,VALID,21.435,VALID,232.0,VALID,0.0,
2018-06-13, 02:40:06,VALID,917.561,VALID,0.0,VALID,97.423,VALID,-0.011,VALID,21.461,VALID,232.0,VALID,0.0,
2018-06-13, 02:41:06,VALID,917.566,VALID,0.0,VALID,97.507,VALID,0.004,VALID,21.484,VALID,232.0,VALID,0.0,
2018-06-13, 02:42:06,VALID,917.57,VALID,0.0,VALID,97.568,VALID,-0.003,VALID,21.498,VALID,231.0,VALID,0.0,
2018-06-13, 02:43:06,VALID,917.57,VALID,0.0,VALID,97.626,VALID,0.004,VALID,21.513,VALID,232.0,VALID,0.0,
2018-06-13, 02:44:06,VALID,917.576,VALID,0.0,VALID,97.707,VALID,-0.008,VALID,21.566,VALID,232.0,VALID,0.0,
2018-06-13, 02:45:06,VALID,917.589,VALID,0.0,VALID,97.579,VALID,0.005,VALID,21.591,VALID,232.0,VALID,0.0,
2018-06-13, 02:46:06,VALID,917.593,VALID,0.0,VALID,97.409,VALID,-0.019,VALID,21.592,VALID,232.0,VALID,0.0,
2018-06-13, 02:47:06,VALID,917.602,VALID,0.0,VALID,97.225,VALID,-0.01,VALID,21.571,VALID,232.0,VALID,0.0,
2018-06-13, 02:48:06,VALID,917.586,VALID,0.0,VALID,97.167,VALID,-0.007,VALID,21.553,VALID,232.0,VALID,0.0,
2018-06-13, 02:49:06,VALID,917.592,VALID,0.0,VALID,97.398,VALID,-0.002,VALID,21.59,VALID,232.0,VALID,0.0,
2018-06-13, 02:50:06,VALID,917.596,VALID,0.0,VALID,97.416,VALID,-0.004,VALID,21.633,VALID,232.0,VALID,0.0,
2018-06-13, 02:51:06,VALID,917.595,VALID,0.0,VALID,97.273,VALID,-0.003,VALID,21.635,VALID,232.0,VALID,0.0,
2018-06-13, 02:52:06,VALID,917.59,VALID,0.0,VALID,96.936,VALID,-0.003,VALID,21.582,VALID,232.0,VALID,0.0,
2018-06-13, 02:53:06,VALID,917.603,VALID,0.0,VALID,96.917,VALID,-0.008,VALID,21.564,VALID,232.0,VALID,0.0,
2018-06-13, 02:54:06,VALID,917.61,VALID,0.0,VALID,96.942,VALID,-0.013,VALID,21.55,VALID,232.0,VALID,0.0,
2018-06-13, 02:55:06,VALID,917.627,VALID,0.0,VALID,96.946,VALID,-0.014,VALID,21.538,VALID,232.0,VALID,0.0,
2018-06-13, 02:56:06,VALID,917.631,VALID,0.0,VALID,97.035,VALID,-0.009,VALID,21.539,VALID,232.0,VALID,0.0,
2018-06-13, 02:57:06,VALID,917.646,VALID,0.0,VALID,97.13,VALID,-0.016,VALID,21.568,VALID,232.0,VALID,0.0,
2018-06-13, 02:58:06,VALID,917.654,VALID,0.0,VALID,97.101,VALID,0.002,VALID,21.581,VALID,249.0,VALID,0.0,
2018-06-13, 02:59:06,VALID,917.652,VALID,0.0,VALID,97.037,VALID,-0.019,VALID,21.558,VALID,342.0,VALID,0.0,
2018-06-13, 03:00:06,VALID,917.661,VALID,0.0,VALID,97.079,VALID,-0.016,VALID,21.506,VALID,344.0,VALID,0.0,
2018-06-13, 03:01:06,VALID,917.65,VALID,0.0,VALID,97.361,VALID,-0.017,VALID,21.501,VALID,24.0,VALID,0.0,
2018-06-13, 03:02:06,VALID,917.663,VALID,0.0,VALID,97.618,VALID,-0.005,VALID,21.519,VALID,29.0,VALID,0.0,
2018-06-13, 03:03:06,VALID,917.656,VALID,0.0,VALID,97.567,VALID,-0.017,VALID,21.486,VALID,30.0,VALID,0.0,
2018-06-13, 03:04:06,VALID,917.651,VALID,0.0,VALID,97.636,VALID,0.001,VALID,21.476,VALID,30.0,VALID,0.0,
2018-06-13, 03:05:06,VALID,917.623,VALID,0.0,VALID,97.78,VALID,0.003,VALID,21.49,VALID,30.0,VALID,0.0,
2018-06-13, 03:06:06,VALID,917.608,VALID,0.0,VALID,97.735,VALID,0.016,VALID,21.451,VALID,29.0,VALID,0.0,
2018-06-13, 03:07:06,VALID,917.575,VALID,0.0,VALID,97.841,VALID,0.011,VALID,21.458,VALID,29.0,VALID,0.0,
2018-06-13, 03:08:06,VALID,917.555,VALID,0.0,VALID,97.908,VALID,0.003,VALID,21.454,VALID,20.0,VALID,0.0,
2018-06-13, 03:09:06,VALID,917.553,VALID,0.0,VALID,97.878,VALID,0.014,VALID,21.423,VALID,20.0,VALID,0.0,
2018-06-13, 03:10:06,VALID,917.544,VALID,0.0,VALID,97.966,VALID,0.021,VALID,21.426,VALID,20.0,VALID,0.0,
2018-06-13, 03:11:06,VALID,917.537,VALID,0.0,VALID,98.027,VALID,0.029,VALID,21.415,VALID,20.0,VALID,0.0,
2018-06-13, 03:12:06,VALID,917.546,VALID,0.0,VALID,98.088,VALID,0.002,VALID,21.399,VALID,21.0,VALID,0.0,
2018-06-13, 03:13:06,VALID,917.564,VALID,0.0,VALID,98.156,VALID,0.012,VALID,21.391,VALID,23.0,VALID,0.0,
2018-06-13, 03:14:06,VALID,917.58,VALID,0.0,VALID,98.192,VALID,0.023,VALID,21.385,VALID,34.0,VALID,0.0,
2018-06-13, 03:15:06,VALID,917.591,VALID,0.0,VALID,98.257,VALID,0.021,VALID,21.375,VALID,36.0,VALID,0.0,
2018-06-13, 03:16:06,VALID,917.61,VALID,0.0,VALID,98.285,VALID,0.026,VALID,21.369,VALID,35.0,VALID,0.0,
2018-06-13, 03:17:06,VALID,917.622,VALID,0.0,VALID,98.311,VALID,0.02,VALID,21.355,VALID,33.0,VALID,0.0,
2018-06-13, 03:18:06,VALID,917.632,VALID,0.0,VALID,98.393,VALID,0.011,VALID,21.38,VALID,42.0,VALID,0.0,
2018-06-13, 03:19:06,VALID,917.636,VALID,0.0,VALID,98.37,VALID,-0.001,VALID,21.365,VALID,44.0,VALID,0.0,
2018-06-13, 03:20:06,VALID,917.619,VALID,0.0,VALID,98.379,VALID,0.006,VALID,21.347,VALID,44.0,VALID,0.0,
2018-06-13, 03:21:06,VALID,917.608,VALID,0.0,VALID,98.426,VALID,-0.014,VALID,21.344,VALID,44.0,VALID,0.0,
2018-06-13, 03:22:06,VALID,917.601,VALID,0.0,VALID,98.486,VALID,-0.01,VALID,21.377,VALID,44.0,VALID,0.0,
2018-06-13, 03:23:06,VALID,917.578,VALID,0.0,VALID,98.52,VALID,-0.003,VALID,21.398,VALID,42.0,VALID,0.0,
2018-06-13, 03:24:06,VALID,917.571,VALID,0.0,VALID,98.541,VALID,-0.015,VALID,21.424,VALID,351.0,VALID,0.0,
2018-06-13, 03:25:06,VALID,917.538,VALID,0.0,VALID,98.521,VALID,-0.027,VALID,21.404,VALID,2.0,VALID,0.0,
2018-06-13, 03:26:06,VALID,917.537,VALID,0.0,VALID,98.434,VALID,-0.036,VALID,21.348,VALID,10.0,VALID,0.0,
2018-06-13, 03:27:06,VALID,917.541,VALID,0.0,VALID,98.538,VALID,-0.029,VALID,21.38,VALID,17.0,VALID,0.0,
2018-06-13, 03:28:06,VALID,917.543,VALID,0.0,VALID,98.535,VALID,-0.025,VALID,21.393,VALID,30.0,VALID,0.0,
2018-06-13, 03:29:06,VALID,917.568,VALID,0.0,VALID,98.479,VALID,-0.033,VALID,21.366,VALID,43.0,VALID,0.0,
2018-06-13, 03:30:06,VALID,917.588,VALID,0.0,VALID,98.42,VALID,-0.035,VALID,21.315,VALID,66.0,VALID,0.0,
2018-06-13, 03:31:06,VALID,917.607,VALID,0.0,VALID,98.279,VALID,-0.04,VALID,21.218,VALID,78.0,VALID,0.0,
2018-06-13, 03:32:06,VALID,917.617,VALID,0.0,VALID,98.354,VALID,-0.039,VALID,21.218,VALID,77.0,VALID,0.0,
2018-06-13, 03:33:06,VALID,917.633,VALID,0.0,VALID,98.405,VALID,-0.014,VALID,21.231,VALID,77.0,VALID,0.0,
2018-06-13, 03:34:06,VALID,917.623,VALID,0.0,VALID,98.442,VALID,-0.003,VALID,21.249,VALID,77.0,VALID,0.0,
2018-06-13, 03:35:06,VALID,917.633,VALID,0.0,VALID,98.453,VALID,0.023,VALID,21.256,VALID,77.0,VALID,0.0,
2018-06-13, 03:36:06,VALID,917.619,VALID,0.0,VALID,98.389,VALID,0.036,VALID,21.221,VALID,82.0,VALID,0.0,
2018-06-13, 03:37:06,VALID,917.624,VALID,0.0,VALID,98.296,VALID,0.033,VALID,21.138,VALID,129.0,VALID,0.0,
2018-06-13, 03:38:06,VALID,917.618,VALID,0.0,VALID,98.234,VALID,0.044,VALID,21.094,VALID,140.0,VALID,0.0,
2018-06-13, 03:39:06,VALID,917.633,VALID,0.0,VALID,98.223,VALID,0.029,VALID,21.078,VALID,140.0,VALID,0.0,
2018-06-13, 03:40:06,VALID,917.648,VALID,0.0,VALID,98.257,VALID,0.031,VALID,21.069,VALID,139.0,VALID,0.0,
2018-06-13, 03:41:06,VALID,917.655,VALID,0.0,VALID,98.229,VALID,0.043,VALID,21.049,VALID,134.0,VALID,0.0,
2018-06-13, 03:42:06,VALID,917.655,VALID,0.0,VALID,98.235,VALID,0.024,VALID,21.03,VALID,130.0,VALID,0.0,